Location: Berg
(47.2344°N, 9.5296°E)
Time: 08:58:57
(UTC+00:00)

COSMOS 2455 - Visible Passes

Search period start: 09 May 2021 00:00
Search period end: 19 May 2021 00:00
Orbit: 902 x 907 km, 67.1° (Epoch: 08 May)

Date Brightness Start Highest point End Pass type
(mag) Time Alt. Az. Time Alt. Az. Time Alt. Az.
09 May 4.2 00:26:38 10° NNW 00:32:15 39° NE 00:37:51 10° ESE visible
09 May 3.1 02:12:34 10° NW 02:18:20 48° WSW 02:24:03 10° S visible
09 May 5.8 20:58:39 10° NNW 21:00:12 11° N 21:01:44 10° NNE visible
09 May 5.5 22:45:16 10° NNW 22:48:56 16° NNE 22:52:36 10° ENE visible
10 May 3.7 00:30:35 10° NNW 00:36:25 48° NE 00:42:13 10° ESE visible
10 May 3.4 02:16:47 10° NW 02:22:13 36° WSW 02:27:38 10° S visible
10 May 5.8 21:03:14 10° NNW 21:04:43 11° N 21:06:12 10° NNE visible
10 May 5.3 22:49:10 10° NNW 22:53:19 19° NNE 22:57:28 10° ENE visible
11 May 3.3 00:34:32 10° NNW 00:40:32 61° NE 00:46:29 10° SE visible
11 May 3.7 02:21:06 10° NW 02:26:04 27° WSW 02:30:37 12° SSW visible
11 May 5.6 19:17:04 10° NW 19:20:26 15° NNW 19:23:49 10° NNE visible
11 May 5.7 21:07:32 10° N 21:09:14 11° N 21:10:56 10° NNE visible
11 May 5.0 22:53:04 10° NNW 22:57:40 22° NNE 23:02:15 10° E visible
12 May 2.9 00:38:32 10° NNW 00:44:36 78° NE 00:49:42 15° SE visible
12 May 4.1 02:25:35 10° WNW 02:29:52 20° WSW 02:32:44 15° SW visible
12 May 5.6 19:22:02 10° NW 19:24:53 13° NNW 19:27:44 10° N visible
12 May 5.6 21:11:37 10° N 21:13:44 12° N 21:15:52 10° NNE visible
12 May 4.7 22:56:59 10° NNW 23:01:58 26° NE 23:06:57 10° E visible
13 May 2.7 00:42:34 10° NW 00:48:37 83° WSW 00:52:18 25° SSE visible
13 May 4.4 02:30:23 10° WNW 02:33:37 15° WSW 02:35:21 13° WSW visible
13 May 5.6 19:27:01 10° NW 19:29:22 12° NNW 19:31:42 10° N visible
13 May 5.5 21:15:36 10° N 21:18:14 13° NNE 21:20:51 10° NE visible
13 May 4.4 23:00:54 10° NNW 23:06:14 31° NE 23:11:32 10° ESE visible
14 May 2.8 00:46:38 10° NW 00:52:35 64° WSW 00:55:11 34° S visible
14 May 4.7 02:36:18 10° W 02:37:20 10° W 02:38:16 10° WSW visible
14 May 5.6 19:31:59 10° NNW 19:33:51 11° N 19:35:44 10° N visible
14 May 5.4 21:19:33 10° NNW 21:22:41 14° NNE 21:25:49 10° NE visible
14 May 4.0 23:04:50 10° NNW 23:10:27 38° NE 23:15:12 14° ESE visible
15 May 3.1 00:50:46 10° NW 00:56:32 48° WSW 00:58:17 38° SSW visible
15 May 5.6 19:36:49 10° NNW 19:38:22 11° N 19:39:56 10° NNE visible
15 May 5.2 21:23:28 10° NNW 21:27:07 16° NNE 21:30:46 10° ENE visible
15 May 3.6 23:08:46 10° NNW 23:14:37 48° NE 23:18:25 21° ESE visible
16 May 3.4 00:54:58 10° NW 01:00:25 36° WSW 01:01:31 34° SW visible
16 May 5.6 19:41:24 10° NNW 19:42:54 11° N 19:44:23 10° NNE visible
16 May 5.1 21:27:22 10° NNW 21:31:30 19° NNE 21:35:38 10° ENE visible
16 May 3.2 23:12:44 10° NNW 23:18:43 61° NE 23:21:45 29° ESE visible
17 May 3.8 00:59:17 10° NW 01:04:16 28° WSW 01:04:51 27° WSW visible
17 May 5.5 19:45:42 10° N 19:47:25 11° N 19:49:07 10° NNE visible
17 May 4.9 21:31:16 10° NNW 21:35:51 22° NNE 21:40:25 10° E visible
17 May 2.9 23:16:44 10° NNW 23:22:48 77° NE 23:25:11 39° SE visible
18 May 4.2 01:03:46 10° WNW 01:08:04 21° WSW 01:08:17 21° WSW visible
18 May 5.4 19:49:48 10° N 19:51:55 12° N 19:54:02 10° NNE visible
18 May 4.6 21:35:11 10° NNW 21:40:09 26° NE 21:45:07 10° E visible
18 May 2.7 23:20:45 10° NW 23:26:49 83° WSW 23:28:41 47° SSE visible
